Moses Lake, WA
on Thursday, January 17, 2013

Thursday
Previous Day Next Day
Daily Summary
 ActualAverageRecord
Temperature
Mean Temperature °F 30°F  
Max Temperature 27°F 36°F 55°F (2011)
Min Temperature 20°F 24°F 10°F (1984)
Degree Days
Heating Degree Days 41 35  
Month to date heating degree days 641 614  
Since 1 July heating degree days 2849 3201  
Cooling Degree Days 0 0  
Month to date cooling degree days 0 0  
Year to date cooling degree days 0 0  
Moisture
Dew Point 21°F   
Average Humidity 87    
Maximum Humidity 92    
Minimum Humidity 81    
Precipitation
Precipitation 0.00 in 0.03 in 0.52 in (1999)
Month to date precipitation 0.27 0.78  
Year to date precipitation 0.27 0.78  
Wind
Wind Speed 4 mph   
Max Wind Speed 8 mph   
Max Gust Speed 10 mph   
Visibility 8 miles   
Events     

Key: T is trace of precipitation, MM is missing value
Source: NWS Daily Summary
Time(PST)TemperatureDew PointHumidity Pressure Visibility Wind DirectionWind SpeedGust SpeedPrecipitationEvents Conditions
12:52 AM 21.0°F 17.1°F 85% 30.62 in 10.0 miles North 5.8 mph - N/A   Clear
1:52 AM 21.9°F 18.0°F 85% 30.61 in 10.0 miles North 8.1 mph - N/A   Mostly Cloudy
2:23 AM 21.2°F 17.6°F 86% 30.57 in 10.0 miles North 5.8 mph - N/A   Overcast
2:52 AM 21.2°F 17.6°F 86% 30.56 in 10.0 miles North 5.8 mph - N/A   Overcast
3:52 AM 19.9°F 16.0°F 85% 30.61 in 10.0 miles NNW 6.9 mph - N/A   Mostly Cloudy
4:52 AM 21.9°F 18.0°F 85% 30.60 in 9.0 miles North 6.9 mph - N/A   Overcast
5:12 AM 23.0°F 19.4°F 86% 30.55 in 8.0 miles North 5.8 mph - N/A   Overcast
5:52 AM 24.1°F 21.0°F 88% 30.60 in 6.0 miles North 6.9 mph - N/A   Overcast
6:52 AM 25.0°F 21.9°F 88% 30.60 in 5.0 miles North 5.8 mph - N/A   Overcast
7:52 AM 25.0°F 21.9°F 88% 30.61 in 5.0 miles NNW 5.8 mph - N/A   Overcast
8:52 AM 25.0°F 23.0°F 92% 30.62 in 3.0 miles NNW 3.5 mph - N/A   Overcast
9:00 AM 24.8°F 23.0°F 93% 30.57 in 3.0 miles Calm Calm - N/A   Overcast
9:52 AM 26.1°F 23.0°F 88% 30.62 in 4.0 miles WNW 5.8 mph - N/A   Overcast
10:52 AM 27.0°F 21.9°F 81% 30.61 in 4.0 miles West 3.5 mph - N/A   Haze
11:52 AM 27.0°F 21.9°F 81% 30.59 in 7.0 miles Calm Calm - N/A   Overcast
11:59 AM 26.6°F 21.2°F 80% 30.53 in 7.0 miles Calm Calm - N/A   Overcast
12:52 PM 27.0°F 23.0°F 85% 30.56 in 6.0 miles Calm Calm - N/A   Overcast
1:52 PM 27.0°F 21.9°F 81% 30.55 in 10.0 miles West 5.8 mph - N/A   Overcast
2:52 PM 27.0°F 21.9°F 81% 30.54 in 10.0 miles Calm Calm - N/A   Overcast
3:52 PM 27.0°F 21.9°F 81% 30.52 in 10.0 miles WSW 3.5 mph - N/A   Overcast
4:52 PM 27.0°F 21.9°F 81% 30.53 in 10.0 miles Calm Calm - N/A   Overcast
5:52 PM 27.0°F 21.9°F 81% 30.52 in 10.0 miles WNW 3.5 mph - N/A   Overcast
6:44 PM 26.6°F 21.2°F 80% 30.47 in 10.0 miles Calm Calm - N/A   Overcast
6:52 PM 27.0°F 21.9°F 81% 30.52 in 10.0 miles Calm Calm - N/A   Overcast
7:52 PM 27.0°F 21.9°F 81% 30.49 in 10.0 miles West 4.6 mph - N/A   Overcast
8:52 PM 27.0°F 21.9°F 81% 30.47 in 10.0 miles WNW 3.5 mph - N/A   Overcast
9:52 PM 27.0°F 21.9°F 81% 30.46 in 10.0 miles Calm Calm - N/A   Overcast
10:52 PM 27.0°F 21.9°F 81% 30.45 in 8.0 miles Calm Calm - N/A   Overcast
11:48 PM 26.6°F 24.8°F 93% 30.39 in 2.0 miles Calm Calm - N/A   Overcast
11:52 PM 26.1°F 24.1°F 92% 30.44 in 2.5 miles Calm Calm - N/A   Overcast
Moon Phase
Jan. 17 Jan. 18 Jan. 26 Feb. 03 Feb. 10
Sunrise:07:37 AM (PST) Moon Rise:10:17 AM (PST)1/17
Sunset:04:37 PM (PST) Moon Set:No Moon Set/

Copyright © 2014 The Weather Underground, Inc.